sat.trackr.live / text

‹ back to catalog

KUIPER-00064

NORAD 64524 · 2025-134AA

PAYLOAD ACTIVE UNKNOWN

§ Identity

Operator
Country
US
Launch date
2025-06-23
Launch site
AFETR
Launch vehicle
Mass (kg)
RCS (m²)

External: N2YO · Heavens-Above · Gunter

§ Orbital elements

Epoch: 2026-05-25T00:05:30.804864Z

Period
97.30 min
Inclination
51.9024°
Eccentricity
0.0000437
Mean motion
14.79947270 rev/d
Perigee alt
629.2 km
Apogee alt
629.8 km
Semi-major
7,007.6 km
B*
-2.1190e-4
RAAN
258.0801°
Arg perigee
98.8840°
Mean anomaly
261.2172°
Rev number
5,134

§ Raw data

KUIPER-000641 64524U 25134AA  26145.00382876 -.00001837  00000+0 -21190-3 0  99942 64524  51.9024 258.0801 0000437  98.8840 261.2172 14.79947270 51343

JSON: /api/v1/satellites/64524 · /tle

For live sub-satellite position, see the globe view (requires WebGL).

§ Visibility from observer

Set your observer location to see the next 7 days of passes ≥ 10°. The values pass through the URL so the page stays shareable.

No JS? Fill the form by hand. The geolocation button needs JavaScript.